Date String (YYYY-MM-DD hh:mm:ss) UTC,Instrument flags,Ambient pressure (hPa),Sample flow (lpm),Bypass flow (lpm),Sample temperature (°C),Ambient temperature (°C),ASC tube jacket temperature (°C),LED temperature (°C),Box temperature (°C),Sample RH (%),Span deviation,Mass concentration (μg/m³),Mass concentration (μg/m³),Mass concentration (μg/m³)
DateTimeUTC,F1_M11,P_M11,Q1_M11,Q2_M11,T1_M11,T2_M11,T3_M11,T4_M11,T5_M11,U1_M11,ZSPAN_M11,X0_M11,X2_M11,X1_M11
2023-02-09 16:00:00,,0832.7,5.02,0.00,22.0,21.3,00.0,30.8,23.6,07.0,0000.0,0002.06,0000.74,0000.54
2023-02-09 16:01:00,,0832.7,4.99,0.00,22.0,20.9,00.0,30.8,23.5,06.9,0000.0,0002.14,0000.76,0000.54
2023-02-09 16:02:00,,0832.7,5.01,0.00,21.9,20.5,00.0,30.8,23.4,07.0,0000.0,0002.14,0000.77,0000.55
2023-02-09 16:03:00,,0832.7,5.00,0.00,21.9,20.3,00.0,30.8,23.3,07.0,0000.0,0002.14,0000.78,0000.57
2023-02-09 16:04:00,,0832.7,5.01,0.00,21.8,20.0,00.0,30.8,23.2,07.0,0000.0,0002.09,0000.77,0000.57
2023-02-09 16:05:00,,0832.7,4.96,0.00,21.8,19.8,00.0,30.8,23.2,07.0,0000.0,0002.01,0000.76,0000.57
2023-02-09 16:06:00,,0832.6,5.03,0.00,21.7,19.6,00.0,30.8,23.1,07.1,0000.0,0002.01,0000.76,0000.58
2023-02-09 16:07:00,,0832.7,4.98,0.00,21.7,20.0,00.0,30.7,23.2,07.1,0000.0,0001.56,0000.75,0000.58
2023-02-09 16:08:00,,0832.7,5.04,0.00,21.8,21.4,00.0,30.7,23.5,07.1,0000.0,0001.14,0000.72,0000.58
2023-02-09 16:09:00,,0832.7,5.03,0.00,21.9,22.5,00.0,30.7,23.8,06.9,0000.0,0001.12,0000.71,0000.59
2023-02-09 16:10:00,,0832.7,4.99,0.00,22.0,22.4,00.0,30.7,23.9,06.9,0000.0,0001.12,0000.72,0000.58
2023-02-09 16:11:00,,0832.8,5.04,0.00,22.0,21.7,00.0,30.8,23.7,06.7,0000.0,0001.12,0000.72,0000.58
2023-02-09 16:12:00,,0832.7,5.00,0.00,22.0,21.1,00.0,30.8,23.6,07.0,0000.0,0001.06,0000.71,0000.58
2023-02-09 16:13:00,,0832.7,5.01,0.00,21.9,20.7,00.0,30.8,23.4,07.0,0000.0,0001.00,0000.70,0000.58
2023-02-09 16:14:00,,0832.6,4.97,0.00,21.8,20.3,00.0,30.8,23.3,07.0,0000.0,0001.01,0000.70,0000.57
2023-02-09 16:15:00,,0832.6,5.02,0.00,21.8,19.9,00.0,30.8,23.1,06.9,0000.0,0001.04,0000.71,0000.57
2023-02-09 16:16:00,,0832.7,4.99,0.00,21.7,19.6,00.0,30.8,23.0,07.0,0000.0,0001.03,0000.71,0000.57
2023-02-09 16:17:00,,0832.7,5.02,0.00,21.6,19.4,00.0,30.7,23.0,07.2,0000.0,0001.05,0000.71,0000.57
2023-02-09 16:18:00,,0832.7,4.97,0.00,21.7,20.4,00.0,30.7,23.2,07.1,0000.0,0001.12,0000.74,0000.57
2023-02-09 16:19:00,,0832.7,5.03,0.00,21.8,21.8,00.0,30.6,23.6,07.0,0000.0,0001.15,0000.76,0000.58
2023-02-09 16:20:00,,0832.7,4.98,0.00,21.9,22.7,00.0,30.6,23.9,07.0,0000.0,0001.15,0000.76,0000.58
2023-02-09 16:21:00,,0832.7,5.02,0.00,22.0,22.3,00.0,30.7,23.9,07.1,0000.0,0001.15,0000.76,0000.59
2023-02-09 16:22:00,,0832.7,5.00,0.00,22.0,21.7,00.0,30.7,23.7,07.1,0000.0,0001.17,0000.78,0000.60
2023-02-09 16:23:00,,0832.8,4.97,0.00,21.9,21.1,00.0,30.8,23.5,06.9,0000.0,0001.18,0000.76,0000.60
2023-02-09 16:24:00,,0832.7,4.98,0.00,21.9,20.8,00.0,30.8,23.4,07.0,0000.0,0001.22,0000.76,0000.61
2023-02-09 16:25:00,,0832.7,5.02,0.00,21.8,20.4,00.0,30.8,23.3,07.1,0000.0,0001.24,0000.76,0000.61
2023-02-09 16:26:00,,0832.7,5.01,0.00,21.8,20.1,00.0,30.8,23.2,07.1,0000.0,0001.27,0000.75,0000.61
2023-02-09 16:27:00,,0832.8,5.00,0.00,21.8,19.9,00.0,30.8,23.1,07.2,0000.0,0001.29,0000.76,0000.62
2023-02-09 16:28:00,,0832.7,5.01,0.00,21.7,19.8,00.0,30.7,23.1,06.9,0000.0,0001.33,0000.76,0000.62
2023-02-09 16:29:00,,0832.8,5.04,0.00,21.7,19.7,00.0,30.7,23.1,07.1,0000.0,0001.39,0000.75,0000.62
2023-02-09 16:30:00,,0832.8,4.97,0.00,21.7,19.8,00.0,30.7,23.1,07.2,0000.0,0001.38,0000.74,0000.62
2023-02-09 16:31:00,,0832.8,4.96,0.00,21.8,21.7,00.0,30.6,23.6,06.9,0000.0,0001.48,0000.75,0000.62
2023-02-09 16:32:00,,0832.8,5.00,0.00,21.9,22.7,00.0,30.7,23.9,06.9,0000.0,0002.39,0000.81,0000.64
2023-02-09 16:33:00,,0832.8,4.98,0.00,22.0,22.6,00.0,30.7,24.0,06.9,0000.0,0002.48,0000.84,0000.65
2023-02-09 16:34:00,,0832.8,5.02,0.00,22.0,22.0,00.0,30.8,23.9,06.9,0000.0,0003.06,0000.85,0000.65
2023-02-09 16:35:00,,0832.8,4.99,0.00,22.0,21.6,00.0,30.8,23.7,07.0,0000.0,0003.99,0000.90,0000.66
2023-02-09 16:36:00,,0832.8,4.98,0.00,22.0,21.2,00.0,30.8,23.6,06.8,0000.0,0004.02,0000.91,0000.65
2023-02-09 16:37:00,,0832.7,5.04,0.00,22.0,20.9,00.0,30.8,23.5,06.8,0000.0,0004.46,0000.89,0000.65
2023-02-09 16:38:00,,0832.8,4.99,0.00,22.0,20.6,00.0,30.8,23.5,06.8,0000.0,0004.66,0000.89,0000.65
2023-02-09 16:39:00,,0832.8,5.01,0.00,21.9,20.5,00.0,30.8,23.4,06.8,0000.0,0004.72,0000.91,0000.64
2023-02-09 16:40:00,,0832.8,5.03,0.00,21.9,20.3,00.0,30.8,23.4,06.9,0000.0,0004.82,0000.94,0000.64
2023-02-09 16:41:00,,0832.8,5.07,0.00,21.9,20.2,00.0,30.8,23.4,07.0,0000.0,0004.99,0001.00,0000.65
2023-02-09 16:42:00,,0832.8,5.00,0.00,21.8,20.1,00.0,30.8,23.4,06.8,0000.0,0005.62,0001.03,0000.64
2023-02-09 16:43:00,,0832.9,4.97,0.00,21.9,20.9,00.0,30.8,23.5,06.9,0000.0,0005.52,0001.00,0000.62
2023-02-09 16:44:00,,0832.9,5.02,0.00,22.0,22.1,00.0,30.8,23.9,06.7,0000.0,0005.37,0000.98,0000.61
2023-02-09 16:45:00,,0832.9,5.01,0.00,22.1,22.4,00.0,30.8,24.0,06.9,0000.0,0005.03,0000.94,0000.60
2023-02-09 16:46:00,,0832.8,5.02,0.00,22.1,21.9,00.0,30.8,23.9,06.9,0000.0,0003.79,0000.90,0000.60
2023-02-09 16:47:00,,0832.8,5.02,0.00,22.1,21.5,00.0,30.9,23.8,06.8,0000.0,0003.70,0000.88,0000.60
2023-02-09 16:48:00,,0833.0,5.06,0.00,22.1,21.1,00.0,30.9,23.7,06.9,0000.0,0004.23,0000.90,0000.60
2023-02-09 16:49:00,,0832.9,4.98,0.00,22.1,20.8,00.0,30.9,23.7,07.0,0000.0,0003.81,0000.91,0000.60
2023-02-09 16:50:00,,0832.9,5.03,0.00,22.1,20.7,00.0,30.9,23.7,06.5,0000.0,0003.76,0000.88,0000.59
2023-02-09 16:51:00,,0833.0,4.98,0.00,22.0,20.5,00.0,30.9,23.6,06.6,0000.0,0003.61,0000.83,0000.59
2023-02-09 16:52:00,,0833.0,5.01,0.00,22.0,20.4,00.0,30.9,23.6,06.8,0000.0,0003.30,0000.76,0000.57
2023-02-09 16:53:00,,0833.1,5.01,0.00,22.0,20.4,00.0,30.9,23.5,06.7,0000.0,0002.74,0000.72,0000.56
2023-02-09 16:54:00,,0833.0,5.03,0.00,22.0,21.4,00.0,30.8,23.8,06.8,0000.0,0002.12,0000.72,0000.56
2023-02-09 16:55:00,,0833.0,4.96,0.00,22.1,22.4,00.0,30.9,24.1,06.7,0000.0,0001.98,0000.70,0000.56
2023-02-09 16:56:00,,0833.0,5.01,0.00,22.2,22.3,00.0,30.9,24.1,06.6,0000.0,0002.12,0000.73,0000.55
2023-02-09 16:57:00,,0833.0,5.01,0.00,22.2,21.8,00.0,30.9,24.0,06.6,0000.0,0002.18,0000.75,0000.55
2023-02-09 16:58:00,,0833.0,5.05,0.00,22.2,21.4,00.0,31.0,23.9,06.6,0000.0,0002.83,0000.77,0000.54
2023-02-09 16:59:00,,0832.9,5.04,0.00,22.2,21.0,00.0,31.0,23.7,06.6,0000.0,0003.62,0000.76,0000.54
